Probability
0 0 0 0 0 0 0 0 0 0 0 0 0 0 0 0 0 0 0 0 0 0 0 0 0 0 0 0 0 0 0 0 0 0 0 0 0 0 0 0 0 0 0
0 0 0 0 0 0 0 0 0 0 0 0 0 0 0 0 0 0 0 0 0 0 0 0 0 0 0 0 0 0 0 0 0 0 0 0 0 0 0 0 0 0 0
0 0 0 0 0 0 0 0 0 0 0 0 0 0 0 0 0 0 0 0 0 0 0 0 0 0 0 0 0 0 0 0 0 0 0 0 0 0 0 0 0 0 0
0 0 0 0 0 0 0 0 0 0 0 0 0 0 0 0 0 0 0 0 0 0 0 0 0 0 0 0 0 0 0 0 0 0 0 0 0 0 0 0 0 0 0
0 0 0 0 0 0 0 0 0 0 0 0 0 0 0 0 0 0 0 0 0 0 0 0 0 0 0 0 0 0 0 0 0 0 0 0 0 0 0 0 0 0 0
0 0 0 0 0 0 0 0 0 0 0 0 0 0 0 0 0 0 0 0 0 0 0 0 0 0 0 0 0 0 0 0 0 0 0 0 0 0 0 0 0 0 0
0 0 0 0 0 0 0 0 0 0 0 0 0 0 0 0 0 0 0 0 0 0 0 0 0 0 0 0 0 0 0 0 0 0 0 0 0 0 0 0 0 0 0
0 0 0 0 0 0 0 0 0 0 0 0 0 0 0 0 0 0 0 0 0 0 0 0 0 0 0 0 0 0 0 0 0 0 0 0 0 0 0 0 0 0 0
0 0 0 0 0 0 0 0 0 0 0 0 0 0 0 0 0 0 0 0 0 0 0 0 0 0 0 0 0 0 0 0 0 0 0 0 0 0 0 0 0 0 0
0 0 0 0 0 0 0 0 0 0 0 0 0 0 0 0 0 0 0 0 0 0 0 0 0 0 0 0 0 0 0 0 0 0 0 0 0 0 0 0 0 0 0
0 0 0 0 0 0 0 0 0 0 0 0 0 0 0 0 0 0 0 0 0 0 0 0 0 0 0 0 0 0 0 0 0 0 0 0 0 0 0 0 0 0 0
0 0 0 0 0 0 0 0 0 0 0 0 0 0 0 0 0 0 0 0 0 0 0 0 0 0 0 0 0 0 0 0 0 0 0 0 0 0 0 0 0 0 0
0 0 0 0 0 0 0 0 0 0 0 0 0 0 0 0 0 0 0 0 0 0 0 0 0 0 0 0 0 0 0 0 0 0 0 0 0 0 0 0 0 0 0
0 0 0 0 0 0 0 0 0 0 0 0 0 0 0 0 0 0 0 0 0 0 0 0 0 0 0 0 0 0 0 0 0 0 0 0 0 0 0 0 0 0 0
0 0 0 0 0 0 0 0 0 0 0 0 0 0 0 0 0 0 0 0 0 0 0 0 0 0 0 0 0 0 0 0 0 0 0 0 0 0 0 0 0 0 0
0 0 0 0 0 0 0 0 0 0 0 0 0 0 0 0 0 0 0 0 0 0 0 0 0 0 0 0 0 0 0 0 0 0 0 0 0 0 0 0 0 0 0
0 0 0 0 0 0 0 0 0 0 0 0 0 0 0 0 0 0 0 0 0 0 0 0 0 0 0 0 0 0 0 0 0 0 0 0 0 0 0 0 0 0 0
0 0 0 0 0 0 0 0 0 0 0 0 0 0 0 0 0 0 0 0 0 0 0 0 0 0 0 0 0 0 0 0 0 0 0 0 0 0 0 0 0 0 0
0 0 0 0 0 0 0 0 0 0 0 0 0 0 0 0 0 0 0 0 0 0 0 0 0 0 0 0 0 0 0 0 0 0 0 0 0 0 0 0 0 0 0
0 0 0 0 0 0 0 0 0 0 0 0 0 0 0 0 0 0 0 0 0 0 0 0 0 0 0 0 0 0 0 0 0 0 0 0 0 0 0 0 0 0 0
0 0 0 0 0 0 0 0 0 0 0 0 0 0 0 0 0 0 0 0 0 0 0 0 0 0 0 0 0 0 0 0 0 0 0 0 0 0 0 0 0 0 0
0 0 0 0 0 0 0 0 0 0 0 0 0 0 0 0 0 0 0 0 0 0 0 0 0 0 0 0 0 0 0 0 0 0 0 0 0 0 0 0 0 0 0
0 0 0 0 0 0 0 0 0 0 0 0 0 0 0 0 0 0 0 0 0 0 0 0 0 0 0 0 0 0 0 0 0 0 0 0 0 0 0 0 0 0 0
0 0 0 0 0 0 0 0 0 0 0 0 0 0 0 0 0 0 0 0 0 0 0 0 0 0 0 0 0 0 0 0 0 0 0 0 0 0 0 0 0 0 0
0 0 0 0 0 0 0 0 0 0 0 0 0 0 0 0 0 0 0 0 0 0 0 0 0 0 0 0 0 0 0 0 0 0 0 0 0 0 0 0 0 0 0
0 0 0 0 0 0 0 0 0 0 0 0 0 0 0 0 0 0 0 0 0 0 0 0 0 0 0 0 0 0 0 0 0 0 0 0 0 0 0 0 0 0 0
Wind_Speed
1 0 0 0 1 1 1 1 1 1 1 2 2 2 2 2 2 3 3 3 3 3 3 3 4 3 2 2 2 2 2 2 5 5 4 4 4 4 4 3 3 3 4
0 0 0 0 0 1 1 1 1 1 1 2 2 2 2 2 2 3 4 3 4 4 4 4 4 3 3 3 3 3 3 3 4 6 5 4 5 5 4 3 4 3 3
1 0 0 0 1 1 1 1 1 1 1 2 2 2 2 3 3 4 4 4 4 4 4 5 4 4 4 3 3 3 3 3 3 4 5 4 4 4 4 4 4 3 4
1 1 1 1 1 1 1 1 1 1 2 2 2 2 2 3 3 4 4 4 4 5 5 5 5 5 5 5 4 4 3 3 3 4 4 4 4 3 3 3 4 3 4
1 1 1 2 2 1 0 1 1 1 2 2 2 2 3 3 3 4 4 4 4 5 5 5 5 6 7 6 4 4 4 4 4 4 4 4 4 3 3 3 4 4 4
0 1 1 2 2 1 1 1 1 2 2 2 3 3 3 3 5 6 5 4 5 5 5 5 5 5 6 7 8 7 6 6 5 5 5 5 6 5 4 3 4 4 4
0 1 1 1 2 2 2 1 2 2 2 3 3 3 4 4 6 6 6 5 5 5 5 5 4 4 4 4 6 7 7 8 8 6 7 7 6 5 4 5 5 5 5
1 1 1 1 2 2 2 2 2 2 3 3 3 3 4 4 6 7 7 5 5 4 4 5 5 4 4 4 4 4 5 6 7 6 6 6 6 5 5 5 5 5 4
1 1 1 1 2 2 2 3 2 2 3 3 3 3 4 5 6 7 6 4 4 4 4 4 4 5 7 7 5 5 6 5 6 7 8 8 8 8 6 3 3 2 4
2 2 2 2 2 3 3 3 3 3 3 3 4 3 4 5 6 7 6 3 4 4 4 4 6 7 8 7 5 5 6 6 4 4 5 6 5 5 6 4 3 3 3
2 2 2 2 3 3 3 2 2 3 3 3 4 4 4 5 6 7 7 4 4 4 4 3 4 7 8 9 8 6 7 5 3 3 3 3 3 3 3 3 3 3 3
2 2 2 3 3 2 3 3 2 2 3 3 4 4 4 4 4 6 7 7 6 4 4 3 4 7 8 9 7 7 7 4 2 2 3 3 3 3 3 3 3 3 3
2 2 3 3 3 3 2 3 3 2 2 3 3 3 4 3 4 6 7 8 8 5 4 6 7 8 7 6 7 6 4 2 2 3 3 3 3 3 2 2 2 2 3
2 3 3 3 3 3 2 2 2 2 2 3 3 3 4 3 3 3 3 4 5 5 4 4 6 7 6 4 3 3 2 2 3 3 3 3 2 2 2 2 2 2 2
3 3 3 3 3 3 3 3 3 3 3 4 3 3 4 4 5 7 5 3 3 4 3 2 2 2 2 2 2 2 2 2 2 2 2 2 2 2 2 2 2 2 2
3 3 2 2 2 2 3 3 5 5 7 7 7 6 5 7 10 10 9 9 8 7 3 2 2 3 3 2 2 2 2 2 2 2 2 2 2 3 2 2 2 2 2
3 3 3 3 2 2 2 3 4 5 6 7 8 8 8 9 10 10 9 9 7 5 3 2 3 3 3 2 2 3 3 2 2 2 2 2 2 2 2 2 2 2 2
3 3 3 3 2 3 3 3 3 4 4 4 6 9 9 9 9 9 8 6 3 2 2 2 2 2 2 2 2 3 3 2 2 2 2 2 2 2 2 2 2 2 3
3 3 2 3 3 3 3 3 3 3 4 4 4 5 7 8 8 7 5 2 2 2 2 2 2 2 2 2 2 2 2 2 2 2 2 2 2 2 2 2 2 3 3
3 4 3 3 3 3 2 3 3 3 3 4 4 4 3 3 3 3 2 2 2 3 2 2 2 2 2 2 2 2 2 2 2 2 2 2 2 2 3 3 3 2 3
3 3 4 3 3 3 3 3 3 3 4 4 4 4 6 3 3 3 3 2 2 3 3 2 2 2 2 2 2 2 2 2 2 2 2 2 2 2 2 3 3 2 2
3 3 3 3 3 3 3 3 3 3 4 4 4 5 7 4 3 3 3 3 3 3 2 2 2 2 2 2 2 2 2 3 2 2 2 2 2 2 2 2 2 2 2
3 3 3 3 3 4 3 3 3 3 4 4 4 4 3 3 3 3 3 3 3 3 2 2 2 2 2 2 2 3 3 3 3 3 2 2 2 2 2 2 2 2 3
3 4 4 3 3 3 3 3 3 4 4 4 4 4 4 4 4 4 3 3 3 3 2 2 3 3 4 3 2 3 3 3 3 3 4 3 3 2 2 2 3 3 3
4 4 4 4 4 3 3 3 4 4 4 3 3 4 4 4 4 4 3 3 3 3 3 3 2 3 3 4 4 3 5 6 5 3 3 3 3 3 3 3 3 3 3
4 4 4 3 3 3 3 4 4 4 4 4 4 4 4 4 4 3 3 3 2 3 3 2 3 4 4 4 4 5 5 6 5 5 4 3 3 3 3 3 3 3 3
Wind_Direction
55 37 116 164 165 169 181 199 201 192 190 204 204 214 227 231 233 222 230 225 228 236 238 236 245 245 243 243 248 251 255 257 270 286 296 306 307 304 304 296 288 277 273
38 28 139 45 169 193 196 209 210 205 203 216 218 218 227 235 236 231 231 234 231 234 237 238 244 244 243 239 242 246 249 252 262 280 292 302 302 295 295 300 302 299 288
11 18 330 279 236 230 226 220 226 223 224 232 231 225 232 241 243 245 237 237 237 237 235 235 240 238 243 246 244 247 255 269 265 273 285 294 297 299 303 306 302 296 295
8 2 296 293 262 226 241 242 233 227 227 235 245 242 240 248 250 252 250 242 241 241 239 237 235 232 236 239 241 248 254 264 270 270 281 295 301 307 305 309 310 308 305
25 344 309 326 323 314 296 286 270 250 245 244 247 253 252 250 250 252 255 249 245 245 244 240 238 242 244 240 244 242 239 249 258 266 275 288 293 304 295 302 296 308 302
37 323 331 337 325 301 289 290 294 278 260 251 248 250 255 256 268 271 267 258 249 246 250 250 245 240 250 255 261 261 252 243 247 252 261 266 275 283 290 288 293 303 293
0 329 331 330 315 302 295 288 277 274 268 258 255 252 253 260 272 276 277 269 255 249 252 255 257 254 250 251 262 266 264 262 254 249 256 260 265 267 271 277 275 277 274
300 305 327 330 309 310 298 281 279 279 272 266 264 261 262 268 277 281 284 271 260 253 251 250 253 257 254 256 257 262 264 262 260 253 251 258 262 262 252 256 267 280 287
297 310 321 303 290 293 286 283 280 278 277 274 269 265 265 271 278 282 283 270 262 262 257 251 248 248 259 261 250 255 268 272 274 270 272 274 277 279 280 275 272 273 284
300 304 309 298 283 279 278 283 283 274 271 274 274 269 265 268 276 279 279 263 263 266 263 255 253 255 260 259 243 241 255 263 268 279 277 279 275 271 272 252 243 252 277
324 318 314 306 294 288 286 284 280 273 275 273 275 275 270 269 276 280 278 264 259 264 264 261 260 267 266 263 260 248 257 269 257 260 267 272 276 268 263 263 257 246 252
344 328 317 310 300 300 296 293 285 273 273 273 273 279 276 271 272 281 280 275 274 258 260 262 266 276 275 271 266 267 273 272 255 255 259 262 264 265 267 267 268 267 265
332 315 307 306 303 297 288 287 285 276 267 271 271 276 280 276 278 285 286 287 284 271 260 266 274 278 277 269 271 273 263 239 235 243 252 260 266 271 282 292 296 301 309
300 301 301 300 301 298 285 274 270 270 268 272 273 275 280 283 280 281 279 286 287 285 279 276 281 282 280 279 266 263 253 241 240 244 253 264 275 277 276 280 282 289 301
287 290 295 291 289 290 283 269 266 261 257 264 266 265 274 279 280 284 279 267 258 259 270 263 259 251 251 255 247 244 241 238 247 261 255 258 261 262 272 277 274 278 264
283 291 293 291 290 289 293 294 282 279 286 284 282 279 278 282 292 290 287 286 284 279 266 248 251 247 240 238 239 245 242 239 248 253 250 253 256 253 264 275 274 262 265
272 280 285 286 287 290 292 295 300 302 295 293 295 295 291 294 298 298 296 295 293 291 263 251 253 254 253 247 242 242 247 246 244 240 243 248 253 258 261 259 256 260 264
269 271 271 272 275 277 279 283 286 292 301 299 300 301 304 305 305 306 309 306 301 298 265 255 253 253 254 249 247 252 252 244 233 232 235 237 237 243 252 258 252 250 258
267 268 270 273 270 270 274 276 278 282 285 293 303 308 311 311 310 312 317 303 276 276 275 271 264 260 260 259 256 255 253 248 244 236 233 231 231 231 244 253 257 259 256
262 264 267 268 269 267 267 268 272 277 281 286 290 297 307 313 310 311 308 281 265 265 268 265 263 263 256 250 253 255 254 254 254 249 243 235 231 231 237 245 248 252 254
262 264 262 262 259 257 256 258 261 266 273 278 281 288 295 290 284 285 283 274 262 264 270 267 262 262 259 245 239 243 249 256 254 259 258 250 238 237 239 242 243 243 249
254 255 254 254 258 258 258 259 257 260 267 274 283 292 295 291 283 283 281 276 270 266 266 263 261 257 249 243 238 237 243 250 251 251 255 261 261 254 246 240 241 245 242
249 253 256 256 255 258 259 256 255 256 261 266 274 280 283 278 273 273 276 279 277 274 269 260 262 268 261 247 238 232 236 243 240 234 241 252 252 252 251 245 240 243 247
248 249 251 255 256 255 256 259 257 257 258 262 266 269 271 272 274 276 276 278 278 275 269 262 258 262 265 265 254 244 241 246 244 236 230 238 243 242 245 245 243 241 241
244 247 248 249 252 255 259 262 263 262 264 265 266 267 270 272 275 277 277 275 273 274 275 270 266 261 263 264 262 253 254 258 252 236 225 227 232 231 234 240 239 235 234
245 247 249 249 250 251 252 258 263 264 265 267 267 267 269 272 274 275 275 273 274 279 279 272 269 270 272 271 269 262 254 254 249 241 229 220 224 228 226 234 234 230 225